Regional Weather Roundup
Issued by NWS

Home | Current Version | Previous Version | Graphics & Text | Print | Product List | Glossary Off
Versions: 1 2 3 4 5 6 7 8 9 10 11 12 13 14 15 16 17 18 19 20 21 22 23 24 25 26 27 28 29 30 31 32 33 34 35 36 37 38 39 40 41 42 43 44 45 46 47 48 49 50

000
ASUS43 KTOP 291259
RWRKS

WEATHER ROUNDUP FOR KANSAS
NATIONAL WEATHER SERVICE GOODLAND KS
800 AM CDT FRI MAY 29 2015

NOTE:  "FAIR" INDICATES FEW OR NO CLOUDS BELOW 12,000 FEET WITH NO
SIGNIFICANT WEATHER AND/OR OBSTRUCTIONS TO VISIBILITY.

KSZ001>006-013>018-027>032-041>047-291400-
NORTHWEST KANSAS

CITY           SKY/WX    TMP DP  RH WIND       PRES   REMARKS
GOODLAND       PTSUNNY   57  52  83 NW15      30.07R
HAYS           PTSUNNY   55  48  76 W6        29.99S
HILL CITY      MOSUNNY   55  52  89 W9        30.01R
RUSSELL        CLOUDY    59  58  96 W6        29.96S
$$

KSZ061>065-074>080-084>089-291400-
SOUTHWEST KANSAS

CITY           SKY/WX    TMP DP  RH WIND       PRES   REMARKS
DODGE CITY     PTSUNNY   57  54  89 NE3       30.01S
ELKHART          N/A     56  50  81 W7          N/A
GARDEN CITY    MOSUNNY   56  54  93 N9        30.02R
GREAT BEND     CLOUDY    61  55  82 NW8       29.98S
LIBERAL        MOSUNNY   57  54  88 N6        30.04R
$$

KSZ066>073-081>083-090>101-291400-
SOUTHEAST KANSAS

CITY           SKY/WX    TMP DP  RH WIND       PRES   REMARKS
CHANUTE        LGT RAIN  66  65  96 SE7       30.02R
COFFEYVILLE    LGT RAIN  68  67  96 SE5       30.02R
HUTCHINSON     CLOUDY    63  59  87 CALM      29.97F
MEDICINE LODGE   N/A     62  60  93 NW3       29.97S
NEWTON         CLOUDY    66  63  88 W3        30.00R
PARSONS        RAIN      68  67  96 CALM      30.03R
WICHITA INTL   CLOUDY    69  67  93 SE9       29.96S
WINFIELD       CLOUDY    69  65  86 SE8       29.99R
$$

KSZ007>012-019>026-033>040-048>060-102>105-291400-
NORTHEAST KANSAS

CITY           SKY/WX    TMP DP  RH WIND       PRES   REMARKS
EMPORIA        LGT RAIN  65  63  93 SE15G22   29.99R
LAWRENCE       LGT RAIN  66  63  90 SE10      29.97R
MANHATTAN      CLOUDY    65  64  97 S3        29.96S
OLATHE IND     LGT RAIN  65  64  97 S8        29.99S
OLATHE EXE     LGT RAIN  65  64  97 S6        29.99S
SALINA         CLOUDY    63  59  87 S3        29.96S
TOPEKA BILLARD CLOUDY    68  65  90 S7        29.96R
TOPEKA FORBES  CLOUDY    68  64  87 S8        29.97R
$$



USA.gov is the U.S. government's official web portal to all federal, state and local government web resources and services.